Accueil
METAR-TAF:

METAR-TAF

Aéroports :

Decatur Municipal Airport

Decatur, Texas, États-Unis

latitude: 33-15-16N, longitude: 097-34-50W, altitude: 319 m

Observation

Le bulletin a été fait il y a 28 minutes, à 10:15 UTC
Vent 9 kt de nord avec des rafales jusqu'à 14 kt
Température 20°C
Humidité 94%
Pression 1013 hPa
Visibilité: 2.8 km
Ciel couvert à une hauteur de 600 ft
brume

METAR: KLUD 221015Z AUTO 36009G14KT 1 3/4SM BR OVC006 20/19 A2991 RMK AO2 P0001 T01970193

Heure: 05:43 (10:43 UTC)


TAF: absent

Observations et prévisions météorologiques de plus de 4000 aéroports (messages METAR et TAF).

Les stations disponibles sont représentées par des disques jaunes et rouges sur la carte.

Passer la souris dessus pour voir le nom de la station.

Cliquer dessus pour voir les observations et prévisions météorologiques.

Pour changer de carte: cliquez sur les boutons verts avec une croix noire pour zoomer, sur le bouton vert avec un tiret pour effectuer un zoom arrière, ou sur les flèches vertes pour les cartes adjacentes.


METAR-TAF: